Location: LDNL
(36.4545°S, 141.6685°E)
Time: 11:09:21
(UTC+10:00)

Transit 4A - All Passes

Search period start: 08 August 2022 00:00
Search period end: 18 August 2022 00:00
Orbit: 866 x 978 km, 66.8° (Epoch: 07 August)

Date Brightness Start Highest point End Pass type
(mag) Time Alt. Az. Time Alt. Az. Time Alt. Az.
08 Aug - 01:10:05 10° WSW 01:12:49 13° SW 01:15:36 10° SSW night (unlit)
08 Aug - 06:40:34 10° SSE 06:43:29 13° SE 06:46:25 10° ESE visible
08 Aug - 08:24:38 10° SSW 08:30:56 72° ESE 08:37:17 10° NE daylight
08 Aug - 10:12:50 10° WSW 10:16:37 17° WNW 10:20:25 10° NW daylight
08 Aug - 21:44:40 10° NNE 21:48:54 21° ENE 21:53:12 10° ESE night (unlit)
08 Aug - 23:29:06 10° NW 23:34:45 51° WSW 23:40:36 10° SSE night (unlit)
09 Aug - 06:48:50 10° S 06:53:10 19° SE 06:57:31 10° E visible
09 Aug - 08:33:52 10° SSW 08:40:10 78° WNW 08:46:33 10° NNE daylight
09 Aug - 21:52:48 10° N 21:57:55 33° ENE 22:03:10 10° SE night (unlit)
09 Aug - 23:38:52 10° WNW 23:44:09 35° SW 23:49:36 10° S night (unlit)
10 Aug - 06:57:31 10° S 07:02:44 27° SE 07:08:01 10° ENE visible
10 Aug - 08:43:16 10° SW 08:49:22 52° WNW 08:55:30 10° N daylight
10 Aug - 22:01:24 10° N 22:07:00 52° ENE 22:12:46 10° SE night (unlit)
10 Aug - 23:48:59 10° WNW 23:53:39 24° SW 23:58:26 10° S night (unlit)
11 Aug - 07:06:23 10° SSW 07:12:13 38° SE 07:18:05 10° ENE daylight
11 Aug - 08:52:52 10° SW 08:58:28 34° WNW 09:04:07 10° N daylight
11 Aug - 22:10:21 10° NNW 22:16:10 80° ENE 22:22:09 10° SSE night (unlit)
11 Aug - 23:59:32 10° W 00:03:15 17° SW 00:07:02 10° S night (unlit)
12 Aug - 05:32:44 10° SSE 05:33:52 10° SE 05:34:59 10° SE visible
12 Aug - 07:15:25 10° SSW 07:21:36 56° ESE 07:27:52 10° NE daylight
12 Aug - 09:02:47 10° WSW 09:07:31 22° WNW 09:12:16 10° NNW daylight
12 Aug - 20:36:31 10° NE 20:39:48 15° ENE 20:43:06 10° ESE night (unlit)
12 Aug - 22:19:37 10° NW 22:25:25 68° WSW 22:31:24 10° SSE night (unlit)
13 Aug - 00:10:55 10° WSW 00:12:57 12° SW 00:15:00 10° SSW night (unlit)
13 Aug - 05:40:06 10° S 05:43:37 15° SE 05:47:09 10° ESE visible
13 Aug - 07:24:34 10° SSW 07:30:54 82° ESE 07:37:18 10° NNE daylight
13 Aug - 09:13:23 10° WSW 09:16:29 14° WNW 09:19:35 10° NW daylight
13 Aug - 20:44:09 10° NNE 20:48:46 25° ENE 20:53:28 10° SE night (unlit)
13 Aug - 22:29:12 10° NW 22:34:45 45° WSW 22:40:29 10° SSE night (unlit)
14 Aug - 05:48:33 10° S 05:53:15 21° SE 05:57:59 10° E visible
14 Aug - 07:33:52 10° SSW 07:40:08 68° WNW 07:46:28 10° NNE daylight
14 Aug - 20:52:29 10° N 20:57:48 39° ENE 21:03:16 10° SE night (unlit)
14 Aug - 22:39:04 10° WNW 22:44:11 30° SW 22:49:27 10° S night (unlit)
15 Aug - 05:57:19 10° S 06:02:48 30° SE 06:08:19 10° ENE visible
15 Aug - 07:43:19 10° SW 07:49:17 45° WNW 07:55:18 10° N daylight
15 Aug - 21:01:12 10° NNW 21:06:55 61° ENE 21:12:48 10° SE night (unlit)
15 Aug - 22:49:19 10° W 22:53:42 21° SW 22:58:13 10° S night (unlit)
16 Aug - 06:06:15 10° SSW 06:12:14 43° ESE 06:18:17 10° NE visible
16 Aug - 07:53:01 10° SW 07:58:22 30° WNW 08:03:46 10° NNW daylight
16 Aug - 19:29:22 10° ENE 19:30:43 11° E 19:32:05 10° E visible
16 Aug - 21:10:16 10° NNW 21:16:06 88° WSW 21:22:08 10° SSE visible
16 Aug - 23:00:04 10° WSW 23:03:21 15° SW 23:06:41 10° S night (unlit)
17 Aug - 04:31:42 10° SSE 04:34:01 12° SE 04:36:21 10° ESE visible
17 Aug - 06:15:19 10° SSW 06:21:36 64° ESE 06:27:56 10° NE visible
17 Aug - 08:03:06 10° WSW 08:07:24 19° WNW 08:11:42 10° NNW daylight
17 Aug - 19:35:48 10° NE 19:39:38 18° ENE 19:43:33 10° ESE visible
17 Aug - 21:19:38 10° NW 21:25:23 59° WSW 21:31:19 10° SSE visible
17 Aug - 23:12:18 10° SW 23:13:05 10° SW 23:13:52 10° SSW night (unlit)
